Location: *
(58.4167°N, 22.5000°E)
Time: 05:50:37
(UTC+00:00)

Cosmos 1371 Rocket - Pass Details

Date: 22 September 2019
Orbit: 753 x 790 km, 74.0° (Epoch: 15 October)

Event Time Altitude Azimuth Distance (km) Brightness Sun altitude
Rises 18:11:26 0° 202° (SSW) 3,259 7.2 -13.7°
Reaches altitude 10° 18:13:48 10° 201° (SSW) 2,340 6.5 -13.9°
Maximum altitude 18:19:07 76° 117° (ESE) 818 4.0 -14.6°
Drops below altitude 10° 18:24:31 10° 32° (NNE) 2,368 6.5 -15.2°
Sets 18:26:55 0° 32° (NNE) 3,302 7.2 -15.5°
